RH
33 33 35 37 37 38 37 35 34 35 33 31 29 27 24 20 18 11 11 9 7 6 5 6 9 12 11 14 15 17 21 23 25 18 26 15 18 20 21 23 25 28 31 32 33
35 38 42 44 45 44 42 42 41 41 37 34 32 28 25 20 17 11 10 7 7 7 7 10 12 14 17 17 17 17 21 28 25 18 17 15 16 18 17 20 19 22 22 23 27
45 46 47 47 49 47 44 43 43 41 40 36 31 28 25 20 19 13 10 9 9 8 10 12 15 17 20 18 19 19 21 25 20 17 17 19 17 16 16 16 17 17 18 19 20
56 54 50 49 48 48 45 43 41 42 41 36 31 28 24 22 18 15 10 12 12 11 14 14 17 17 18 20 21 17 17 19 16 18 16 18 18 19 16 16 17 16 16 15 16
66 62 57 56 54 51 48 45 44 43 39 36 32 29 26 26 25 17 10 10 11 12 16 16 16 17 17 19 19 17 16 20 20 17 16 18 18 18 17 19 17 16 16 19 19
80 78 73 65 62 57 54 50 48 44 41 37 36 31 31 30 25 21 13 13 15 16 18 17 17 18 19 20 20 25 22 22 22 20 18 17 17 16 17 19 19 22 22 24 24
89 87 83 78 74 66 60 56 51 46 40 38 35 31 32 33 27 26 19 19 21 20 22 20 21 19 20 23 23 21 20 19 20 20 20 18 16 18 20 22 22 22 23 30 31
94 92 89 85 82 76 64 56 50 44 40 37 33 33 33 29 27 27 24 21 20 21 22 25 22 22 25 26 23 22 23 21 22 23 24 20 16 23 23 23 23 26 28 34 31
94 93 91 89 89 85 74 62 54 46 43 39 38 42 32 31 27 27 26 25 25 25 26 24 24 26 28 26 26 26 21 24 26 22 22 21 18 20 23 25 25 28 31 35 35
92 89 91 86 80 79 75 72 66 55 46 49 48 48 35 32 33 31 29 25 27 25 27 26 28 28 27 27 25 26 32 26 24 26 25 23 23 22 24 29 33 33 36 34 36
91 93 90 86 79 72 71 72 72 73 61 56 52 45 42 39 34 34 33 28 31 28 28 28 31 28 24 28 28 28 26 23 22 23 28 29 28 26 29 32 35 37 36 36 35
91 90 88 88 83 76 74 81 74 78 66 61 51 47 43 40 37 38 34 33 31 27 27 33 31 24 26 31 32 29 27 26 27 28 30 28 27 27 33 34 33 35 35 37 36
87 87 88 86 84 81 77 78 79 70 62 53 49 46 39 38 35 38 37 36 32 29 31 33 29 29 29 34 33 30 29 28 30 31 32 28 28 29 36 38 37 36 37 36 35
89 83 84 87 84 89 86 80 78 66 69 52 49 48 42 41 37 33 39 36 36 33 30 34 32 32 33 33 31 29 30 35 35 30 30 34 34 29 38 45 39 37 39 38 36
82 79 79 81 83 81 82 78 79 69 84 52 50 50 47 42 38 37 38 42 36 35 33 33 35 35 33 29 29 32 37 34 33 34 33 31 33 28 31 44 44 39 38 38 40
79 76 76 71 72 80 80 78 75 85 79 57 57 52 52 47 42 50 42 42 41 39 40 35 39 37 32 33 34 37 37 35 37 36 41 34 32 25 31 41 44 40 39 39 43
83 82 77 72 59 70 72 77 87 78 50 51 53 53 54 51 46 52 42 44 40 38 39 43 40 34 33 38 37 39 40 45 48 53 48 39 36 30 38 38 40 41 41 42 44
85 88 84 69 71 62 73 86 86 53 52 48 53 55 51 52 49 52 46 41 37 34 35 41 41 38 36 34 40 42 41 41 41 38 33 42 40 40 39 41 41 42 43 44 47
88 84 77 74 71 73 79 89 65 45 46 52 58 61 57 54 54 56 53 45 42 41 37 44 42 43 41 37 37 44 50 42 46 41 45 38 32 43 42 46 48 45 45 46 51
94 95 80 80 81 81 90 85 51 41 45 42 47 58 58 56 53 58 54 48 47 43 43 43 49 46 46 42 39 41 50 56 54 53 53 35 38 45 55 55 54 50 46 49 54
99 98 92 91 94 97 97 77 51 46 58 55 46 58 58 62 52 58 57 59 53 50 47 48 42 53 53 46 42 45 50 54 58 55 55 48 43 55 62 55 54 52 49 52 58
98 98 93 99 98 90 93 57 61 73 75 72 70 57 51 64 65 63 60 63 56 55 51 48 49 46 55 53 48 50 57 57 71 60 59 59 49 58 56 59 58 54 55 59 62
98 98 97 99 97 89 67 71 80 79 77 76 66 63 63 62 58 59 62 74 61 55 54 52 58 58 53 54 66 65 55 65 68 65 63 72 62 59 60 63 66 64 61 61 58
98 98 99 99 97 84 79 78 82 80 80 80 74 67 64 67 64 58 59 67 60 61 55 60 60 61 61 58 77 87 70 68 62 78 74 73 67 62 72 74 72 66 62 60 58
98 98 98 96 98 86 80 65 69 75 84 89 91 79 73 71 64 61 65 79 76 72 72 75 73 67 66 65 81 84 87 80 78 78 95 76 75 69 70 69 72 72 65 63 58
99 96 98 91 79 82 81 75 63 56 64 73 81 81 80 86 76 75 77 80 76 77 74 78 89 81 76 73 65 64 61 55 63 65 71 73 69 62 63 63 62 75 62 59 63
97 96 96 91 89 91 81 60 54 60 61 68 76 73 79 78 75 75 73 84 84 77 75 80 79 82 81 69 68 69 42 56 53 48 54 58 54 51 55 59 64 78 58 57 63